Terminal Aerodrome Forecast
Issued by NWS Upton, NY

Home | Current Version | Previous Version | Text Only | Print | Product List | Glossary On
Versions: 1 2 3 4 5 6 7 8 9 10 11 12 13 14 15 16 17 18 19 20 21 22 23 24 25 26 27 28 29 30 31 32 33 34 35 36 37 38 39 40 41 42 43 44 45 46 47 48 49 50
000
FTUS41 KOKX 161505 AAB
TAFLGA
TAF AMD
KLGA 161505Z 1615/1718 21011KT P6SM SCT060 BKN150
     FM161700 21015G20KT P6SM BKN060
     FM162200 25011KT 5SM -SHRA BR VCTS BKN040CB
     FM170000 27010KT P6SM VCSH BKN040
     FM170400 31007KT P6SM SCT040 BKN100
     FM170800 34005KT P6SM BKN040
     FM171200 02005KT P6SM BKN040=

USA.gov is the U.S. government's official web portal to all federal, state and local government web resources and services.